Regional Weather Roundup
Issued by NWS Wakefield, VA

Home | Current Version | Previous Version | Text Only | Print | Product List | Glossary On
Versions: 1 2 3 4 5 6 7 8 9 10 11 12 13 14 15 16 17 18 19 20 21 22 23 24 25 26 27 28 29 30 31 32 33 34 35 36 37 38 39 40 41 42 43 44 45 46 47 48 49 50
000
ASUS41 KAKQ 080215
RWRAKQ

REGIONAL WEATHER ROUNDUP
NATIONAL WEATHER SERVICE WAKEFIELD VA
900 PM EST WED DEC 07 2016

Note: "fair" indicates few or no clouds below 12,000 feet with no
significant weather and/or obstructions to visibility. * = Denotes
station may not report precipitation (e.g., rain,snow,etc.),
thunder or fog.

VAZ042-051-052>054-056-080300-
NORTHERN VIRGINIA

CITY           SKY/WX    TMP DP  RH WIND       PRES   REMARKS
WASH NATIONAL  CLOUDY    43  36  76 S3        30.08S
DULLES         MOCLDY    32  29  88 CALM      30.07S
FORT BELVOIR   PTCLDY    33  30  88 CALM      30.08S
QUANTICO       CLOUDY    37  33  85 NW8       30.10R
FREDERICKSBRG* PTCLDY    37  35  93 CALM      30.08R
STAFFORD*      PTCLDY    32  32 100 CALM      30.12R
WARRENTON      CLOUDY    29  26  86 CALM      30.07R
CULPEPER*      CLEAR     32  32  99 CALM      30.09R
MANASSAS*      CLEAR    N/A N/A N/A CALM      30.08
LEESBURG*      CLEAR     34  34 100 W5        30.08R
WINCHESTER     CLEAR     32  25  74 CALM      30.06S
FRONT ROYAL*   FAIR      34  32  93 CALM      30.06R
LURAY*         FAIR      32  32 100 CALM      30.06R
$$

VAZ048-049-060>072-079>083-080300-
CENTRAL AND SOUTH CENTRAL VIRGINIA

CITY           SKY/WX    TMP DP  RH WIND       PRES   REMARKS
RICHMOND       NOT AVBL
CHESTERFIELD*  FAIR      39  21  48 CALM      30.10S
PETERSBURG*    PTCLDY    36  35  94 CALM      30.09S
HANOVER        PTCLDY    36  33  89 CALM      30.09F
TAPPAHANNOCK*  PTCLDY    35  35 100 CALM      30.10R
QUINTON*       FAIR      37  35  92 CALM      30.08F
CHARLOTTSVILLE CLEAR     40  33  76 NW5       30.06S
GORDONSVILLE*  FAIR      33  33  99 CALM      30.07R
ORANGE*          N/A     36  36 100 CALM      30.09R
LOUISA*        CLOUDY    45  39  81 SE5       30.05F
BUMPASS*       FAIR      38  35  90 CALM      30.07S
FARMVILLE*     CLOUDY    40  39  97 CALM      30.06S
CREWE*         CLOUDY    40  40 100 CALM      30.07S
FORT PICKETT*  CLOUDY    44  41  88 SE5       30.07F
CHASE CITY*    FAIR      41  39  95 CALM      30.07S
CLARKSVILLE*   FAIR      37  37 100 CALM      30.07R
SOUTH HILL*    MOCLDY    41  41  99 CALM      30.13R
LAWRENCEVILLE* FAIR      44  43  97 CALM      30.08R
EMPORIA*       FOG       37  37 100 CALM      30.10S VSB 1/2
$$

VAZ088>098-080300-
SOUTHEAST VIRGINIA

CITY           SKY/WX    TMP DP  RH WIND       PRES   REMARKS
NORFOLK        CLEAR     47  40  76 NE5       30.09S
VIRGINIA BEACH PTCLDY    41  38  89 CALM      30.09S
NORFOLK NAVAL  CLEAR     42  40  92 CALM      30.11R
WEST POINT*    MOCLDY    36  34  93 CALM      30.11S
SALUDA*        FAIR      37  37  99 CALM      30.09S
NEWPORT NEWS   FOG       38  37  97 CALM      30.10R VSB 3/4
LANGLEY AFB    PTCLDY    41  39  93 CALM      30.09S
FORT EUSTIS    MOCLDY    41  38  91 CALM      30.07S
WILLIAMSBURG*  CLOUDY    41  39  93 CALM      30.11R
HR EXEC AP*    FAIR      34  30  86 CALM      30.09R
FRANKLIN*      PTCLDY    40  39  95 E3        30.10S
US460-WAKEFLD  PTCLDY    39  39 100 CALM      30.10S
$$

VAZ020-022-025-037-045-080300-
WEST CENTRAL AND SOUTHWEST VIRGINIA

CITY           SKY/WX    TMP DP  RH WIND       PRES   REMARKS
STAUNTON*      CLEAR     32  31  96 CALM      30.07S
WAYNESBORO*    FAIR      34  30  86 CALM      30.05S
HOT SPRINGS VA NOT AVBL
LYNCHBURG      CLEAR     37  32  82 CALM      30.06F
DANVILLE       CLOUDY    39  38  96 N3        30.07R
SOUTH BOSTON*  FAIR      40  39  95 CALM      30.07S
MARTINSVILLE   MOCLDY    36  34  92 CALM      30.09S
ROANOKE        PTCLDY    43  30  60 CALM      30.08F
BLACKSBURG     CLOUDY    34  30  85 CALM      30.08F
DUBLIN*        CLOUDY    40  28  61 CALM      30.07S
MARION*        MOCLDY    36  32  85 CALM      30.08R
HILLSVILLE*    CLOUDY    40  32  72 CALM      30.03F
RICHLANDS*     FAIR      34  29  83 NE5       30.05F
WISE*          PTCLDY    32  27  80 CALM      30.07F
ABINGDON*      PTCLDY    39  33  79 CALM      30.06S
$$

MDZ021>025-VAZ099-100-080300-
SOUTHERN MARYLAND AND THE DELMARVA PENINSULA

CITY           SKY/WX    TMP DP  RH WIND       PRES   REMARKS
PATUXENT RIVER MOCLDY    36  34  92 CALM      30.08S
BAY BRIDGE APT PTCLDY    36  32  87 CALM      30.07F
LEONARDTOWN    PTCLDY    36  32  87 CALM      30.09F
DOVER          CLOUDY    37  37 100 CALM      30.06F
GEORGETOWN     FOG       36  35  96 CALM      30.08S VSB 3/4
EASTON         CLEAR     37  34  87 CALM      30.11S
CAMBRIDGE      PTCLDY    34  34 100 CALM      30.07F
SALISBURY      MOCLDY    35  34  96 CALM      30.08S
OCEAN CITY     PTCLDY    36  35  96 CALM      30.08S FOG
WALLOPS ISLAND PTCLDY    37  37 100 CALM      30.09S
ACCOMACK*      PTCLDY    37  37  98 CALM      30.09S FOG
$$

NCZ012>017-030>032-080300-
NORTH CENTRAL AND EASTERN NORTH CAROLINA

CITY           SKY/WX    TMP DP  RH WIND       PRES   REMARKS
ROANOKE RAPIDS MOCLDY    43  43 100 CALM      30.08S
RALEIGH        MOCLDY    45  42  89 CALM      30.08R
ELIZABETH CITY CLEAR     46  42  86 E3        30.10S
AHOSKIE*       PTCLDY    40  39  99 CALM      30.09S
EDENTON*       CLOUDY    48  44  86 CALM      30.10R
CURRITUCK*     CLEAR     46  43  88 CALM      30.10S
KILL DEVIL HLS CLEAR     49  44  84 CALM      30.07F
MANTEO         CLEAR     47  42  84 NE3       30.09F
CAPE HATTERAS  NOT AVBL
TARBORO*       NOT AVBL
GOLDSBORO      CLEAR     44  44 100 E5        30.06S
WASHINGTON     CLEAR     42  41  97 CALM      30.10R
GREENVILLE     CLEAR     43  43 100 CALM      30.10S
NEW BERN       CLEAR     43  41  93 CALM      30.10S
WILMINGTON     CLEAR     46  46 100 CALM      30.08F
$$

VAZ048-080300-
ELSEWHERE

CITY           SKY/WX    TMP DP  RH WIND       PRES   REMARKS
HARRISBURG PA  MOCLDY    37  33  85 CALM      30.04S
BALTIMORE      MOCLDY    34  32  92 CALM      30.07S
ANNAPOLIS      PTCLDY    41  35  79 CALM      30.07F
ANDREWS AFB    CLOUDY    35  30  83 S2        30.06S
PHILADELPHIA   PTCLDY    40  30  67 CALM      30.06F
HENDERSON NC   CLEAR     40  37  89 CALM      30.08R
GREENSBORO     CLOUDY    49  39  68 CALM      30.05F
ROCKY MOUNT    CLEAR     42  42 100 CALM      30.08S FOG
$$

VAZ100-080300-
MARINE

STATION/POSITION TIME  TEMP    WIND        PRES    WAVE   SWELL
                       AIR SEA DIR/SP/G            HT/PER HT/PER
                 (UTC) (F)     (DEG/KT/KT) (MB)    (FT/S) (FT/S)
BRANDYWINE LGT   0148   46     280/  5/  5   N/A
CAPE MAY NJ      0148   39 48   CALM  /  1 1017.9F
LEWES DE         0148   42 49  230/  4/  5 1018.3S
OCEAN-CITY-INLET 0148             CALM       N/A
WACHAPREAGUE VA  0142   40 50  320/  2/  2 1018.7F
THOMAS POINT MD  0200   45 49  250/  3/  4   N/A
GOOSES REEF MD   0150   48      CALM  /  2 1019.0F
COVE POINT MD    0142   45      CALM  /  1 1019.0F
SOLOMONS ISLAND  0148           CALM  /  1   N/A
BISHOPS HEAD MD  0142   44 48   CALM  /  1 1018.7F
PINEY POINT MD   0148          100/  3/  3   N/A
POTOMAC MD       0150   47      10/  2/  2 1017.7F
CAMBRIDGE MD     0142   40 47  210/  2/  3 1017.7F
LEWISETTA VA     0142   42 49  230/  3/  3 1018.3F
RAPPAHANNOCK LGT 0148           80/  4/  4 1019.4F
STINGRAY PT      0150   48     110/  4/  6 1019.2S
YORK RVR RNG VA  0142   49      70/  6/  7 1018.4F
YORKTOWN VA      0142   48 51   60/  3/  5 1018.7S
JAMESTOWN VA     0150   46      50/  2/  4   N/A
DOMINION TERM VA 0142   49      80/  5/  7 1019.0R
KIPTOPEKE VA     0148           80/  3/  4   N/A
CHES BAY BRIDGE  0142   49 53   60/  8/ 10 1018.7F
CAPE HENRY VA    0142   49      30/  8/ 10   N/A
WILLOUBY STN VA  0142   49      70/  7/  8 1019.8R
S CRANEY ISL VA  0142   48     110/  3/  4 1018.8S
CAPE HENRY BUOY  0142      55                N/A     5/10   2/11
1ST LANDING BUOY 0150   49                 1019.0S
CAPE CHARLES BUO 0156      54                N/A     5/10   2/11
OFFSHORE WE BUOY 0151      56                N/A     5/ 9   2/11
64NM E OF VA BCH 0150   53 58  360/ 12/ 14 1018.0F   7/11   7/11
DUCK PIER NC     0142   51 54   30/ 10/ 12 1018.2F
44100 DUCK FRF   0135      55                N/A     6/10   3/11
OREGON INLET NC  0142   51 55   30/  6/ 10 1018.6F
HATTERAS NC      0148           20/  8/ 12   N/A
DIAMOND SHLS NC  0150   55 78  360/ 12/ 16 1018.9R   7/10   7/10
CAPE LOOKOUT NC  0100   52      10/  7/  7 1018.7R
$$



USA.gov is the U.S. government's official web portal to all federal, state and local government web resources and services.